Time,TemperatureF,DewpointF,PressureIn,WindDirection,WindDirectionDegrees,WindSpeedMPH,WindSpeedGustMPH,Humidity,HourlyPrecipIn,Conditions,Clouds,dailyrainin,SoftwareType,DateUTC
2013-07-08 00:00:00,73.2,51.7,29.96,WNW,284,0.0,0.0,47,0.00,,,-99.99,Weather View 32 v60,2013-07-08 04:00:00,
2013-07-08 00:05:00,73.0,51.6,29.96,WNW,284,0.0,0.0,47,0.00,,,-99.99,Weather View 32 v60,2013-07-08 04:05:00,
2013-07-08 00:09:00,73.0,51.6,29.96,WNW,284,0.0,0.0,47,0.00,,,-99.99,Weather View 32 v60,2013-07-08 04:09:00,
2013-07-08 00:15:00,72.9,51.4,29.96,WNW,284,0.0,0.0,47,0.00,,,-99.99,Weather View 32 v60,2013-07-08 04:15:00,
2013-07-08 00:20:00,72.7,51.8,29.96,WNW,284,0.0,0.0,48,0.00,,,-99.99,Weather View 32 v60,2013-07-08 04:20:00,
2013-07-08 00:23:00,72.7,51.8,29.96,WNW,284,0.0,0.0,48,0.00,,,-99.99,Weather View 32 v60,2013-07-08 04:23:00,
2013-07-08 00:25:00,72.7,51.8,29.96,WNW,284,0.0,0.0,48,0.00,,,-99.99,Weather View 32 v60,2013-07-08 04:25:00,
2013-07-08 00:30:00,72.5,51.6,29.96,WNW,284,0.0,0.0,48,0.00,,,-99.99,Weather View 32 v60,2013-07-08 04:30:00,
2013-07-08 00:35:00,72.3,52.0,29.96,WNW,284,0.0,0.0,49,0.00,,,-99.99,Weather View 32 v60,2013-07-08 04:35:00,
2013-07-08 00:40:00,72.1,51.9,29.96,WNW,284,0.0,0.0,49,0.00,,,-99.99,Weather View 32 v60,2013-07-08 04:40:00,
2013-07-08 00:50:00,72.1,51.9,29.96,WNW,284,0.0,0.0,49,0.00,,,-99.99,Weather View 32 v60,2013-07-08 04:50:00,
2013-07-08 00:55:00,72.0,52.3,29.96,WNW,284,0.0,0.0,50,0.00,,,-99.99,Weather View 32 v60,2013-07-08 04:55:00,
2013-07-08 01:00:00,72.0,52.8,29.96,WNW,284,0.0,0.0,51,0.00,,,-99.99,Weather View 32 v60,2013-07-08 05:00:00,
2013-07-08 01:05:00,72.0,52.8,29.96,WNW,284,0.0,0.0,51,0.00,,,-99.99,Weather View 32 v60,2013-07-08 05:05:00,
2013-07-08 01:10:00,72.0,52.8,29.96,WSW,246,0.0,0.0,51,0.00,,,-99.99,Weather View 32 v60,2013-07-08 05:10:00,
2013-07-08 01:15:00,72.0,52.8,29.96,WSW,246,0.0,0.0,51,0.00,,,-99.99,Weather View 32 v60,2013-07-08 05:15:00,
2013-07-08 01:20:00,72.0,53.3,29.96,WSW,246,0.0,0.0,52,0.00,,,-99.99,Weather View 32 v60,2013-07-08 05:20:00,
2013-07-08 01:25:00,72.0,53.3,29.96,WSW,237,0.0,0.0,52,0.00,,,-99.99,Weather View 32 v60,2013-07-08 05:25:00,
2013-07-08 01:30:00,72.0,53.3,29.96,WSW,237,0.0,0.0,52,0.00,,,-99.99,Weather View 32 v60,2013-07-08 05:30:00,
2013-07-08 01:35:00,72.0,53.3,29.96,WSW,237,0.0,0.0,52,0.00,,,-99.99,Weather View 32 v60,2013-07-08 05:35:00,
2013-07-08 01:40:00,72.0,53.3,29.96,WSW,237,0.0,0.0,52,0.00,,,-99.99,Weather View 32 v60,2013-07-08 05:40:00,
2013-07-08 01:45:00,72.0,52.8,29.96,WSW,237,0.0,0.0,51,0.00,,,-99.99,Weather View 32 v60,2013-07-08 05:45:00,
2013-07-08 01:50:00,72.0,52.8,29.96,WSW,237,0.0,0.0,51,0.00,,,-99.99,Weather View 32 v60,2013-07-08 05:50:00,
2013-07-08 01:55:00,71.8,52.6,29.96,WSW,237,0.0,0.0,51,0.00,,,-99.99,Weather View 32 v60,2013-07-08 05:55:00,
2013-07-08 02:00:00,71.8,52.1,29.96,WSW,237,0.0,0.0,50,0.00,,,-99.99,Weather View 32 v60,2013-07-08 06:00:00,
2013-07-08 02:05:00,71.8,52.1,29.96,WSW,237,0.0,0.0,50,0.00,,,-99.99,Weather View 32 v60,2013-07-08 06:05:00,
2013-07-08 02:10:00,71.6,52.5,29.96,WSW,237,0.0,0.0,51,0.00,,,-99.99,Weather View 32 v60,2013-07-08 06:10:00,
2013-07-08 02:15:00,71.6,52.5,29.96,WSW,237,0.0,0.0,51,0.00,,,-99.99,Weather View 32 v60,2013-07-08 06:15:00,
2013-07-08 02:20:00,71.6,53.0,29.99,WSW,237,0.0,0.0,52,0.00,,,-99.99,Weather View 32 v60,2013-07-08 06:20:00,
2013-07-08 02:25:00,71.6,53.0,29.99,WSW,237,0.0,0.0,52,0.00,,,-99.99,Weather View 32 v60,2013-07-08 06:25:00,
2013-07-08 02:30:00,71.4,52.8,29.99,WSW,237,0.0,0.0,52,0.00,,,-99.99,Weather View 32 v60,2013-07-08 06:30:00,
2013-07-08 02:35:00,71.4,52.8,29.96,WSW,237,0.0,0.0,52,0.00,,,-99.99,Weather View 32 v60,2013-07-08 06:35:00,
2013-07-08 02:40:00,71.4,53.3,29.96,WNW,301,3.0,4.0,53,0.00,,,-99.99,Weather View 32 v60,2013-07-08 06:40:00,
2013-07-08 02:45:00,71.4,53.9,29.96,West,273,2.0,4.0,54,0.00,,,-99.99,Weather View 32 v60,2013-07-08 06:45:00,
2013-07-08 02:50:00,71.4,53.9,29.96,West,273,0.0,4.0,54,0.00,,,-99.99,Weather View 32 v60,2013-07-08 06:50:00,
2013-07-08 02:55:00,71.4,53.9,29.96,West,272,0.0,4.0,54,0.00,,,-99.99,Weather View 32 v60,2013-07-08 06:55:00,
2013-07-08 03:00:00,71.4,53.9,29.96,SSW,198,0.0,4.0,54,0.00,,,-99.99,Weather View 32 v60,2013-07-08 07:00:00,
2013-07-08 03:05:00,71.4,54.4,29.96,SSW,198,0.0,4.0,55,0.00,,,-99.99,Weather View 32 v60,2013-07-08 07:05:00,
2013-07-08 03:10:00,71.4,54.4,29.96,SSW,198,0.0,4.0,55,0.00,,,-99.99,Weather View 32 v60,2013-07-08 07:10:00,
2013-07-08 03:20:00,71.4,55.3,29.96,SSW,198,0.0,4.0,57,0.00,,,-99.99,Weather View 32 v60,2013-07-08 07:20:00,
2013-07-08 03:25:00,71.2,55.2,29.96,SSW,198,0.0,4.0,57,0.00,,,-99.99,Weather View 32 v60,2013-07-08 07:25:00,
2013-07-08 03:35:00,71.2,55.2,29.96,SSW,198,0.0,4.0,57,0.00,,,-99.99,Weather View 32 v60,2013-07-08 07:35:00,
2013-07-08 03:40:00,71.2,55.2,29.96,SSW,198,0.0,4.0,57,0.00,,,-99.99,Weather View 32 v60,2013-07-08 07:40:00,
2013-07-08 03:45:00,71.2,54.7,29.96,SSW,198,0.0,3.0,56,0.00,,,-99.99,Weather View 32 v60,2013-07-08 07:45:00,
2013-07-08 03:50:00,71.2,54.7,29.96,SSW,198,0.0,0.0,56,0.00,,,-99.99,Weather View 32 v60,2013-07-08 07:50:00,
2013-07-08 04:00:00,71.1,55.5,29.96,SSW,198,0.0,0.0,58,0.00,,,-99.99,Weather View 32 v60,2013-07-08 08:00:00,
2013-07-08 04:05:00,71.1,56.0,29.96,SSW,198,0.0,0.0,59,0.00,,,-99.99,Weather View 32 v60,2013-07-08 08:05:00,
2013-07-08 04:10:00,71.1,56.0,29.96,SSW,198,0.0,0.0,59,0.00,,,-99.99,Weather View 32 v60,2013-07-08 08:10:00,
2013-07-08 04:15:00,71.1,56.0,29.96,SSW,198,0.0,0.0,59,0.00,,,-99.99,Weather View 32 v60,2013-07-08 08:15:00,
2013-07-08 04:20:00,71.1,56.4,29.96,SSW,198,0.0,0.0,60,0.00,,,-99.99,Weather View 32 v60,2013-07-08 08:20:00,
2013-07-08 04:25:00,71.2,56.6,29.96,SSW,198,0.0,0.0,60,0.00,,,-99.99,Weather View 32 v60,2013-07-08 08:25:00,
2013-07-08 04:30:00,71.2,56.6,29.96,SSW,198,0.0,0.0,60,0.00,,,-99.99,Weather View 32 v60,2013-07-08 08:30:00,
2013-07-08 04:35:00,71.2,56.6,29.96,SSW,198,0.0,0.0,60,0.00,,,-99.99,Weather View 32 v60,2013-07-08 08:35:00,
2013-07-08 04:40:00,71.2,56.6,29.96,SSW,198,0.0,0.0,60,0.00,,,-99.99,Weather View 32 v60,2013-07-08 08:40:00,
2013-07-08 04:45:00,71.2,56.1,29.96,SSW,198,0.0,0.0,59,0.00,,,-99.99,Weather View 32 v60,2013-07-08 08:45:00,
2013-07-08 04:50:00,71.1,56.0,29.96,SSW,198,0.0,0.0,59,0.00,,,-99.99,Weather View 32 v60,2013-07-08 08:50:00,
2013-07-08 04:55:00,71.1,56.0,29.96,SSW,198,0.0,0.0,59,0.00,,,-99.99,Weather View 32 v60,2013-07-08 08:55:00,
2013-07-08 05:00:00,71.1,56.0,29.96,SSW,198,0.0,0.0,59,0.00,,,-99.99,Weather View 32 v60,2013-07-08 09:00:00,
2013-07-08 05:05:00,71.1,56.0,29.96,SSW,198,0.0,0.0,59,0.00,,,-99.99,Weather View 32 v60,2013-07-08 09:05:00,
2013-07-08 05:10:00,71.1,56.0,29.96,SSW,198,0.0,0.0,59,0.00,,,-99.99,Weather View 32 v60,2013-07-08 09:10:00,
2013-07-08 05:20:00,70.9,56.7,29.96,SSW,198,0.0,0.0,61,0.00,,,-99.99,Weather View 32 v60,2013-07-08 09:20:00,
2013-07-08 05:26:00,70.9,57.2,29.96,SSW,198,0.0,0.0,62,0.00,,,-99.99,Weather View 32 v60,2013-07-08 09:26:00,
2013-07-08 05:35:00,70.7,57.0,29.96,SSW,198,0.0,0.0,62,0.00,,,-99.99,Weather View 32 v60,2013-07-08 09:35:00,
2013-07-08 05:40:00,70.7,57.4,29.96,SSW,198,0.0,0.0,63,0.00,,,-99.99,Weather View 32 v60,2013-07-08 09:40:00,
2013-07-08 05:45:00,70.7,57.9,29.96,SSE,148,0.0,3.0,64,0.00,,,-99.99,Weather View 32 v60,2013-07-08 09:45:00,
2013-07-08 05:50:00,70.7,58.7,29.96,ESE,122,0.0,3.0,66,0.00,,,-99.99,Weather View 32 v60,2013-07-08 09:50:00,
2013-07-08 05:55:00,70.5,59.0,29.96,SSE,151,0.0,3.0,67,0.00,,,-99.99,Weather View 32 v60,2013-07-08 09:55:00,
2013-07-08 06:00:00,70.5,59.4,29.96,SSE,158,2.0,3.0,68,0.00,,,-99.99,Weather View 32 v60,2013-07-08 10:00:00,
2013-07-08 06:05:00,70.5,59.8,29.96,SSE,161,0.0,3.0,69,0.00,,,-99.99,Weather View 32 v60,2013-07-08 10:05:00,
2013-07-08 06:10:00,70.5,60.2,29.96,SSE,157,0.0,4.0,70,0.00,,,-99.99,Weather View 32 v60,2013-07-08 10:10:00,
2013-07-08 06:15:00,70.5,60.2,29.96,SSE,157,0.0,4.0,70,0.00,,,-99.99,Weather View 32 v60,2013-07-08 10:15:00,
2013-07-08 06:20:00,70.5,60.2,29.96,SSE,157,0.0,4.0,70,0.00,,,-99.99,Weather View 32 v60,2013-07-08 10:20:00,
2013-07-08 06:25:00,70.7,60.4,29.96,SSE,157,0.0,4.0,70,0.00,,,-99.99,Weather View 32 v60,2013-07-08 10:25:00,
2013-07-08 06:30:00,70.7,60.4,29.96,SSE,157,0.0,4.0,70,0.00,,,-99.99,Weather View 32 v60,2013-07-08 10:30:00,
2013-07-08 06:35:00,70.7,60.8,29.93,SSE,157,0.0,4.0,71,0.00,,,-99.99,Weather View 32 v60,2013-07-08 10:35:00,
2013-07-08 06:40:00,70.7,60.8,29.93,SSE,157,0.0,4.0,71,0.00,,,-99.99,Weather View 32 v60,2013-07-08 10:40:00,
2013-07-08 06:45:00,70.7,61.2,29.93,SSE,157,0.0,4.0,72,0.00,,,-99.99,Weather View 32 v60,2013-07-08 10:45:00,
2013-07-08 06:50:00,70.7,61.2,29.93,SSE,157,0.0,4.0,72,0.00,,,-99.99,Weather View 32 v60,2013-07-08 10:50:00,
2013-07-08 06:55:00,70.7,61.2,29.93,SSE,157,0.0,4.0,72,0.00,,,-99.99,Weather View 32 v60,2013-07-08 10:55:00,
2013-07-08 07:00:00,70.7,61.2,29.93,SSE,157,0.0,4.0,72,0.00,,,-99.99,Weather View 32 v60,2013-07-08 11:00:00,
2013-07-08 07:05:00,70.7,61.2,29.96,SSE,157,0.0,4.0,72,0.00,,,-99.99,Weather View 32 v60,2013-07-08 11:05:00,
2013-07-08 07:10:00,0.0,0.0,29.96,East,81,0.0,2.0,0,0.00,,,-99.99,Weather View 32 v60,2013-07-08 11:10:00,
2013-07-08 07:15:00,70.9,61.4,29.96,East,81,0.0,0.0,72,0.00,,,-99.99,Weather View 32 v60,2013-07-08 11:15:00,
2013-07-08 07:20:00,70.9,61.8,29.96,South,171,0.0,0.0,73,0.00,,,-99.99,Weather View 32 v60,2013-07-08 11:20:00,
2013-07-08 07:25:00,71.1,61.9,29.96,SE,132,0.0,3.0,73,0.00,,,-99.99,Weather View 32 v60,2013-07-08 11:25:00,
2013-07-08 07:30:00,71.1,61.9,29.96,SSE,155,0.0,3.0,73,0.00,,,-99.99,Weather View 32 v60,2013-07-08 11:30:00,
2013-07-08 07:35:00,71.2,62.1,29.96,SSE,164,0.0,3.0,73,0.00,,,-99.99,Weather View 32 v60,2013-07-08 11:35:00,
2013-07-08 07:40:00,71.2,62.1,29.96,SSW,195,0.0,3.0,73,0.00,,,-99.99,Weather View 32 v60,2013-07-08 11:40:00,
2013-07-08 07:45:00,71.4,62.3,29.96,SSW,195,0.0,3.0,73,0.00,,,-99.99,Weather View 32 v60,2013-07-08 11:45:00,
2013-07-08 07:50:00,71.4,62.3,29.96,SSE,160,0.0,3.0,73,0.00,,,-99.99,Weather View 32 v60,2013-07-08 11:50:00,
2013-07-08 07:55:00,71.6,62.5,29.96,SSE,160,0.0,3.0,73,0.00,,,-99.99,Weather View 32 v60,2013-07-08 11:55:00,
2013-07-08 08:00:00,0.0,0.0,29.96,South,177,0.0,4.0,0,0.00,,,-99.99,Weather View 32 v60,2013-07-08 12:00:00,
2013-07-08 08:05:00,71.8,62.6,29.96,SSE,164,0.0,4.0,73,0.00,,,-99.99,Weather View 32 v60,2013-07-08 12:05:00,
2013-07-08 08:10:00,0.0,0.0,29.96,SSE,160,0.0,4.0,0,0.00,,,-99.99,Weather View 32 v60,2013-07-08 12:10:00,
2013-07-08 08:20:00,0.0,0.0,29.96,SSE,160,0.0,4.0,0,0.00,,,-99.99,Weather View 32 v60,2013-07-08 12:20:00,
2013-07-08 08:25:00,0.0,0.0,29.96,SSE,147,2.0,4.0,0,0.00,,,-99.99,Weather View 32 v60,2013-07-08 12:25:00,
2013-07-08 08:30:00,72.3,63.1,29.96,SSE,147,0.0,4.0,73,0.00,,,-99.99,Weather View 32 v60,2013-07-08 12:30:00,
2013-07-08 08:35:00,72.5,63.3,29.96,SSE,159,0.0,4.0,73,0.00,,,-99.99,Weather View 32 v60,2013-07-08 12:35:00,
2013-07-08 08:45:00,72.7,63.1,29.96,SSE,157,0.0,4.0,72,0.00,,,-99.99,Weather View 32 v60,2013-07-08 12:45:00,
2013-07-08 08:50:00,72.9,63.3,29.96,SE,141,2.0,4.0,72,0.00,,,-99.99,Weather View 32 v60,2013-07-08 12:50:00,
2013-07-08 08:55:00,73.0,63.4,29.96,SE,135,3.0,4.0,72,0.00,,,-99.99,Weather View 32 v60,2013-07-08 12:55:00,
2013-07-08 09:00:00,73.2,63.6,29.96,SE,140,3.0,4.0,72,0.00,,,-99.99,Weather View 32 v60,2013-07-08 13:00:00,
2013-07-08 09:05:00,73.2,63.2,29.96,SSE,167,3.0,4.0,71,0.00,,,-99.99,Weather View 32 v60,2013-07-08 13:05:00,
2013-07-08 09:10:00,73.4,63.0,29.96,South,173,3.0,4.0,70,0.00,,,-99.99,Weather View 32 v60,2013-07-08 13:10:00,
2013-07-08 09:15:00,73.6,63.2,29.96,SW,227,0.0,4.0,70,0.00,,,-99.99,Weather View 32 v60,2013-07-08 13:15:00,
2013-07-08 09:20:00,73.6,63.2,29.96,SSE,156,0.0,4.0,70,0.00,,,-99.99,Weather View 32 v60,2013-07-08 13:20:00,
2013-07-08 09:28:00,73.6,62.7,29.96,SSE,149,0.0,4.0,69,0.00,,,-99.99,Weather View 32 v60,2013-07-08 13:28:00,
2013-07-08 09:35:00,73.9,63.1,29.96,SE,142,0.0,4.0,69,0.00,,,-99.99,Weather View 32 v60,2013-07-08 13:35:00,
2013-07-08 09:40:00,73.9,62.7,29.96,SE,142,2.0,4.0,68,0.00,,,-99.99,Weather View 32 v60,2013-07-08 13:40:00,
2013-07-08 09:50:00,74.1,62.4,29.96,WSW,238,2.0,5.0,67,0.00,,,-99.99,Weather View 32 v60,2013-07-08 13:50:00,
2013-07-08 09:55:00,74.3,62.6,29.96,SSE,152,0.0,5.0,67,0.00,,,-99.99,Weather View 32 v60,2013-07-08 13:55:00,
2013-07-08 10:00:00,74.5,62.3,29.96,SSW,195,4.0,5.0,66,0.00,,,-99.99,Weather View 32 v60,2013-07-08 14:00:00,
2013-07-08 10:10:00,74.7,62.1,29.96,SSE,149,0.0,5.0,65,0.00,,,-99.99,Weather View 32 v60,2013-07-08 14:10:00,
2013-07-08 10:15:00,74.7,61.6,29.96,West,269,3.0,5.0,64,0.00,,,-99.99,Weather View 32 v60,2013-07-08 14:15:00,
2013-07-08 10:20:00,74.7,61.6,29.96,SSW,198,3.0,5.0,64,0.00,,,-99.99,Weather View 32 v60,2013-07-08 14:20:00,
2013-07-08 10:29:00,74.8,61.8,29.96,SSW,213,0.0,5.0,64,0.00,,,-99.99,Weather View 32 v60,2013-07-08 14:29:00,
2013-07-08 10:35:00,74.8,61.4,29.96,SW,225,3.0,5.0,63,0.00,,,-99.99,Weather View 32 v60,2013-07-08 14:35:00,
2013-07-08 10:40:00,75.0,61.5,29.96,SSE,153,0.0,5.0,63,0.00,,,-99.99,Weather View 32 v60,2013-07-08 14:40:00,
2013-07-08 10:45:00,75.0,61.1,29.96,SSE,164,0.0,5.0,62,0.00,,,-99.99,Weather View 32 v60,2013-07-08 14:45:00,
2013-07-08 10:55:00,75.4,61.4,29.96,SW,230,3.0,5.0,62,0.00,,,-99.99,Weather View 32 v60,2013-07-08 14:55:00,
2013-07-08 11:00:00,75.4,60.9,29.96,WSW,257,5.0,6.0,61,0.00,,,-99.99,Weather View 32 v60,2013-07-08 15:00:00,
2013-07-08 11:10:00,75.6,60.7,29.96,WSW,257,3.0,6.0,60,0.00,,,-99.99,Weather View 32 v60,2013-07-08 15:10:00,
2013-07-08 11:15:00,75.6,60.7,29.96,SSW,200,4.0,6.0,60,0.00,,,-99.99,Weather View 32 v60,2013-07-08 15:15:00,
2013-07-08 11:20:00,75.6,60.2,29.96,WSW,241,3.0,6.0,59,0.00,,,-99.99,Weather View 32 v60,2013-07-08 15:20:00,
2013-07-08 11:29:00,75.7,60.3,29.96,WSW,244,3.0,6.0,59,0.00,,,-99.99,Weather View 32 v60,2013-07-08 15:29:00,
2013-07-08 11:35:00,75.7,59.9,29.96,SSE,164,3.0,8.0,58,0.00,,,-99.99,Weather View 32 v60,2013-07-08 15:35:00,
2013-07-08 11:40:00,75.7,59.9,29.96,SW,227,3.0,8.0,58,0.00,,,-99.99,Weather View 32 v60,2013-07-08 15:40:00,
2013-07-08 11:45:00,75.9,60.0,29.96,SSW,213,6.0,8.0,58,0.00,,,-99.99,Weather View 32 v60,2013-07-08 15:45:00,
2013-07-08 11:55:00,76.1,59.7,29.96,WSW,253,5.0,10.0,57,0.00,,,-99.99,Weather View 32 v60,2013-07-08 15:55:00,
2013-07-08 12:00:00,76.3,59.4,29.96,West,265,6.0,10.0,56,0.00,,,-99.99,Weather View 32 v60,2013-07-08 16:00:00,
2013-07-08 12:05:00,76.3,58.4,29.96,WSW,240,5.0,10.0,54,0.00,,,-99.99,Weather View 32 v60,2013-07-08 16:05:00,
2013-07-08 12:15:00,76.5,57.5,29.96,West,264,8.0,10.0,52,0.00,,,-99.99,Weather View 32 v60,2013-07-08 16:15:00,
2013-07-08 12:20:00,76.5,56.9,29.96,West,268,9.0,10.0,51,0.00,,,-99.99,Weather View 32 v60,2013-07-08 16:20:00,
2013-07-08 12:25:00,76.5,56.4,29.96,WSW,248,4.0,13.0,50,0.00,,,-99.99,Weather View 32 v60,2013-07-08 16:25:00,
2013-07-08 12:30:00,76.6,57.1,29.96,WNW,292,4.0,13.0,51,0.00,,,-99.99,Weather View 32 v60,2013-07-08 16:30:00,
2013-07-08 12:40:00,76.6,57.1,29.96,West,264,3.0,13.0,51,0.00,,,-99.99,Weather View 32 v60,2013-07-08 16:40:00,
2013-07-08 12:45:00,76.6,57.1,29.96,SW,236,4.0,13.0,51,0.00,,,-99.99,Weather View 32 v60,2013-07-08 16:45:00,
2013-07-08 12:55:00,76.6,56.5,29.96,West,271,2.0,13.0,50,0.00,,,-99.99,Weather View 32 v60,2013-07-08 16:55:00,
2013-07-08 13:00:00,76.6,56.5,29.96,WSW,249,5.0,13.0,50,0.00,,,-99.99,Weather View 32 v60,2013-07-08 17:00:00,
2013-07-08 13:05:00,76.6,56.5,29.96,WNW,283,5.0,13.0,50,0.00,,,-99.99,Weather View 32 v60,2013-07-08 17:05:00,
2013-07-08 13:10:00,76.8,56.7,29.96,WNW,288,5.0,13.0,50,0.00,,,-99.99,Weather View 32 v60,2013-07-08 17:10:00,
2013-07-08 13:19:00,76.8,55.6,29.96,West,272,5.0,13.0,48,0.00,,,-99.99,Weather View 32 v60,2013-07-08 17:19:00,
2013-07-08 13:25:00,76.8,55.6,29.96,WSW,238,3.0,9.0,48,0.00,,,-99.99,Weather View 32 v60,2013-07-08 17:25:00,
2013-07-08 13:30:00,76.8,53.2,29.96,West,263,6.0,11.0,44,0.00,,,-99.99,Weather View 32 v60,2013-07-08 17:30:00,
2013-07-08 13:35:00,76.8,53.8,29.96,WNW,292,6.0,11.0,45,0.00,,,-99.99,Weather View 32 v60,2013-07-08 17:35:00,
2013-07-08 13:50:00,76.5,54.1,29.96,WSW,255,4.0,11.0,46,0.00,,,-99.99,Weather View 32 v60,2013-07-08 17:50:00,
2013-07-08 13:55:00,76.3,54.5,29.96,SW,225,3.0,11.0,47,0.00,,,-99.99,Weather View 32 v60,2013-07-08 17:55:00,
2013-07-08 14:05:00,75.9,54.8,29.96,SSW,209,0.0,11.0,48,0.00,,,-99.99,Weather View 32 v60,2013-07-08 18:05:00,
2013-07-08 14:15:00,75.7,55.7,29.96,WSW,240,0.0,11.0,50,0.00,,,-99.99,Weather View 32 v60,2013-07-08 18:15:00,
2013-07-08 14:20:00,75.7,55.7,29.96,SW,220,0.0,11.0,50,0.00,,,-99.99,Weather View 32 v60,2013-07-08 18:20:00,
2013-07-08 14:25:00,75.6,56.1,29.96,SW,216,0.0,11.0,51,0.00,,,-99.99,Weather View 32 v60,2013-07-08 18:25:00,
2013-07-08 14:30:00,75.6,56.6,29.96,SW,216,0.0,11.0,52,0.00,,,-99.99,Weather View 32 v60,2013-07-08 18:30:00,
2013-07-08 14:35:00,75.4,56.5,29.96,WSW,250,0.0,8.0,52,0.00,,,-99.99,Weather View 32 v60,2013-07-08 18:35:00,
2013-07-08 14:40:00,75.4,57.0,29.96,South,173,0.0,8.0,53,0.00,,,-99.99,Weather View 32 v60,2013-07-08 18:40:00,
2013-07-08 14:45:00,75.4,57.5,29.96,South,173,0.0,8.0,54,0.00,,,-99.99,Weather View 32 v60,2013-07-08 18:45:00,
2013-07-08 14:55:00,75.4,58.0,29.96,South,173,0.0,6.0,55,0.00,,,-99.99,Weather View 32 v60,2013-07-08 18:55:00,
2013-07-08 15:10:00,75.4,58.0,29.93,SSW,203,0.0,5.0,55,0.00,,,-99.99,Weather View 32 v60,2013-07-08 19:10:00,
2013-07-08 15:15:00,75.4,58.0,29.93,WSW,248,3.0,5.0,55,0.00,,,-99.99,Weather View 32 v60,2013-07-08 19:15:00,
2013-07-08 15:25:00,75.4,57.0,29.93,West,266,0.0,5.0,53,0.00,,,-99.99,Weather View 32 v60,2013-07-08 19:25:00,
2013-07-08 15:30:00,75.4,57.0,29.93,WSW,257,4.0,5.0,53,0.00,,,-99.99,Weather View 32 v60,2013-07-08 19:30:00,
2013-07-08 15:40:00,75.6,57.2,29.93,WSW,240,0.0,8.0,53,0.00,,,-99.99,Weather View 32 v60,2013-07-08 19:40:00,
2013-07-08 15:50:00,75.7,56.3,29.93,SSW,202,0.0,9.0,51,0.00,,,-99.99,Weather View 32 v60,2013-07-08 19:50:00,
2013-07-08 15:55:00,75.7,55.7,29.93,South,176,0.0,9.0,50,0.00,,,-99.99,Weather View 32 v60,2013-07-08 19:55:00,
2013-07-08 16:05:00,75.7,55.7,29.93,South,169,2.0,9.0,50,0.00,,,-99.99,Weather View 32 v60,2013-07-08 20:05:00,
2013-07-08 16:10:00,75.7,55.7,29.93,South,183,3.0,9.0,50,0.00,,,-99.99,Weather View 32 v60,2013-07-08 20:10:00,
2013-07-08 16:20:00,75.4,55.9,29.93,SSW,201,3.0,9.0,51,0.00,,,-99.99,Weather View 32 v60,2013-07-08 20:20:00,
2013-07-08 16:30:00,75.0,56.1,29.93,SW,214,0.0,9.0,52,0.00,,,-99.99,Weather View 32 v60,2013-07-08 20:30:00,
2013-07-08 16:35:00,75.0,56.1,29.93,WNW,283,8.0,9.0,52,0.00,,,-99.99,Weather View 32 v60,2013-07-08 20:35:00,
2013-07-08 16:40:00,74.8,56.5,29.93,WSW,245,3.0,9.0,53,0.00,,,-99.99,Weather View 32 v60,2013-07-08 20:40:00,
2013-07-08 16:45:00,74.8,56.5,29.93,West,267,3.0,8.0,53,0.00,,,-99.99,Weather View 32 v60,2013-07-08 20:45:00,
2013-07-08 16:50:00,74.7,56.9,29.93,West,265,0.0,8.0,54,0.00,,,-99.99,Weather View 32 v60,2013-07-08 20:50:00,
2013-07-08 16:55:00,74.7,56.9,29.93,West,265,0.0,8.0,54,0.00,,,-99.99,Weather View 32 v60,2013-07-08 20:55:00,
2013-07-08 17:00:00,0.0,0.0,29.93,West,265,0.0,8.0,0,0.00,,,-99.99,Weather View 32 v60,2013-07-08 21:00:00,
2013-07-08 17:05:00,74.3,57.5,29.93,WNW,282,3.0,8.0,56,0.00,,,-99.99,Weather View 32 v60,2013-07-08 21:05:00,
2013-07-08 17:10:00,73.9,57.2,29.93,SSW,209,3.0,9.0,56,0.00,,,-99.99,Weather View 32 v60,2013-07-08 21:10:00,
2013-07-08 17:20:00,73.8,58.0,29.93,West,277,2.0,9.0,58,0.00,,,-99.99,Weather View 32 v60,2013-07-08 21:20:00,
2013-07-08 17:25:00,73.6,58.3,29.93,WNW,286,3.0,9.0,59,0.00,,,-99.99,Weather View 32 v60,2013-07-08 21:25:00,
2013-07-08 17:33:00,73.4,58.6,29.93,WSW,256,4.0,9.0,60,0.00,,,-99.99,Weather View 32 v60,2013-07-08 21:33:00,
2013-07-08 17:40:00,73.2,59.4,29.93,NW,321,3.0,9.0,62,0.00,,,-99.99,Weather View 32 v60,2013-07-08 21:40:00,
2013-07-08 17:45:00,73.0,59.7,29.93,WNW,283,4.0,9.0,63,0.00,,,-99.99,Weather View 32 v60,2013-07-08 21:45:00,
2013-07-08 18:00:00,73.2,62.0,29.93,SW,219,0.0,9.0,68,0.00,,,-99.99,Weather View 32 v60,2013-07-08 22:00:00,
2013-07-08 18:15:00,73.4,62.2,29.93,SW,219,0.0,8.0,68,0.00,,,-99.99,Weather View 32 v60,2013-07-08 22:15:00,
2013-07-08 18:20:00,73.4,62.2,29.93,SSW,213,0.0,8.0,68,0.00,,,-99.99,Weather View 32 v60,2013-07-08 22:20:00,
2013-07-08 18:33:00,73.6,62.7,29.93,NW,309,0.0,8.0,69,0.00,,,-99.99,Weather View 32 v60,2013-07-08 22:33:00,
2013-07-08 18:40:00,73.6,63.2,29.93,West,261,5.0,8.0,70,0.00,,,-99.99,Weather View 32 v60,2013-07-08 22:40:00,
2013-07-08 18:45:00,73.6,63.2,29.93,West,266,5.0,8.0,70,0.00,,,-99.99,Weather View 32 v60,2013-07-08 22:45:00,
2013-07-08 18:55:00,73.6,62.7,29.93,West,264,0.0,7.0,69,0.00,,,-99.99,Weather View 32 v60,2013-07-08 22:55:00,
2013-07-08 19:15:00,73.4,61.7,29.93,West,274,4.0,7.0,67,0.00,,,-99.99,Weather View 32 v60,2013-07-08 23:15:00,
2013-07-08 19:24:00,73.4,61.7,29.93,WSW,258,4.0,7.0,67,0.00,,,-99.99,Weather View 32 v60,2013-07-08 23:24:00,
2013-07-08 19:30:00,73.2,61.6,29.93,SW,226,3.0,7.0,67,0.00,,,-99.99,Weather View 32 v60,2013-07-08 23:30:00,
2013-07-08 19:40:00,73.2,61.1,29.93,WSW,238,6.0,7.0,66,0.00,,,-99.99,Weather View 32 v60,2013-07-08 23:40:00,
2013-07-08 19:50:00,73.0,61.0,29.93,West,268,0.0,6.0,66,0.00,,,-99.99,Weather View 32 v60,2013-07-08 23:50:00,
2013-07-08 20:05:00,73.2,60.7,29.93,West,276,4.0,6.0,65,0.00,,,-99.99,Weather View 32 v60,2013-07-09 00:05:00,
2013-07-08 20:15:00,73.2,60.3,29.93,West,270,3.0,6.0,64,0.00,,,-99.99,Weather View 32 v60,2013-07-09 00:15:00,
2013-07-08 20:25:00,73.2,59.8,29.93,WSW,254,3.0,6.0,63,0.00,,,-99.99,Weather View 32 v60,2013-07-09 00:25:00,
2013-07-08 20:30:00,73.2,59.4,29.93,West,274,4.0,6.0,62,0.00,,,-99.99,Weather View 32 v60,2013-07-09 00:30:00,
2013-07-08 20:35:00,73.0,59.2,29.93,West,260,0.0,6.0,62,0.00,,,-99.99,Weather View 32 v60,2013-07-09 00:35:00,
2013-07-08 20:50:00,72.9,58.6,29.93,West,260,0.0,6.0,61,0.00,,,-99.99,Weather View 32 v60,2013-07-09 00:50:00,
2013-07-08 21:00:00,72.7,58.4,29.93,West,260,0.0,6.0,61,0.00,,,-99.99,Weather View 32 v60,2013-07-09 01:00:00,
2013-07-08 21:05:00,72.5,58.2,29.93,West,260,0.0,6.0,61,0.00,,,-99.99,Weather View 32 v60,2013-07-09 01:05:00,
2013-07-08 21:25:00,72.3,58.1,29.93,West,260,0.0,4.0,61,0.00,,,-99.99,Weather View 32 v60,2013-07-09 01:25:00,
2013-07-08 21:35:00,72.1,57.9,29.93,West,260,0.0,0.0,61,0.00,,,-99.99,Weather View 32 v60,2013-07-09 01:35:00,
2013-07-08 21:45:00,72.1,57.9,29.93,West,260,0.0,0.0,61,0.00,,,-99.99,Weather View 32 v60,2013-07-09 01:45:00,
2013-07-08 21:50:00,72.1,57.9,29.93,West,260,0.0,0.0,61,0.00,,,-99.99,Weather View 32 v60,2013-07-09 01:50:00,
2013-07-08 21:55:00,72.1,58.4,29.93,West,260,0.0,0.0,62,0.00,,,-99.99,Weather View 32 v60,2013-07-09 01:55:00,
2013-07-08 22:00:00,72.0,57.7,29.93,West,260,0.0,0.0,61,0.00,,,-99.99,Weather View 32 v60,2013-07-09 02:00:00,
2013-07-08 22:05:00,72.0,57.7,29.93,West,260,0.0,0.0,61,0.00,,,-99.99,Weather View 32 v60,2013-07-09 02:05:00,
2013-07-08 22:14:00,72.0,57.7,29.93,West,260,0.0,0.0,61,0.00,,,-99.99,Weather View 32 v60,2013-07-09 02:14:00,
2013-07-08 22:35:00,71.8,58.5,29.93,West,260,0.0,0.0,63,0.00,,,-99.99,Weather View 32 v60,2013-07-09 02:35:00,
2013-07-08 22:50:00,71.6,59.2,29.93,West,260,0.0,0.0,65,0.00,,,-99.99,Weather View 32 v60,2013-07-09 02:50:00,
2013-07-08 22:59:00,71.4,59.0,29.93,West,260,0.0,0.0,65,0.00,,,-99.99,Weather View 32 v60,2013-07-09 02:59:00,
2013-07-08 23:05:00,71.4,59.0,29.96,West,260,0.0,0.0,65,0.00,,,-99.99,Weather View 32 v60,2013-07-09 03:05:00,
2013-07-08 23:35:00,71.1,57.3,29.93,West,260,0.0,0.0,62,0.00,,,-99.99,Weather View 32 v60,2013-07-09 03:35:00,
2013-07-08 23:40:00,70.9,57.2,29.93,West,260,0.0,0.0,62,0.00,,,-99.99,Weather View 32 v60,2013-07-09 03:40:00,
2013-07-08 23:50:00,70.7,57.0,29.96,West,260,0.0,0.0,62,0.00,,,-99.99,Weather View 32 v60,2013-07-09 03:50:00,
2013-07-08 23:55:00,70.7,57.0,29.96,West,260,0.0,0.0,62,0.00,,,-99.99,Weather View 32 v60,2013-07-09 03:55:00,